SL-14 DEB, 45296

Orbit data source: Space-Track

SL-14 DEB, 45296 is space debris in LEO originally from a launch on Thu, 15 Aug 1991 UTC launched from the Plesetsk Missile And Space Complex (PKMTR). Debris objects in space refer to the collection of defunct objects orbiting the Earth. Examples of debris include non-operational satellites, rocket bodies, and fragments generated from explosions, collisions, or faulty payload assembly.

Loading next visibility...
Identifier
45296, 1991-056AJ
Orbit
LEO
Country
Flag of CISCIS
Related business
Manufacturer
Unknown
Mission
Spacecraft
Bus & Motor
Unknown
Mass
Unknown
Launch date (UTC)
1991-08-15 (34 years ago)
Launch vehicle
Unknown
Launch site
Plesetsk Missile And Space Complex (PKMTR)
Object type
Payload
Rocket body
Debris
Shape & HBR
Unknown
Radar Cross Section
Small (<0.1 m²)

Expand to show TLE details & history
Last TLE update: 14 hours ago

TLE from 14 hours ago
0 SL-14 DEB
1 45296U 91056AJ  25259.16804419  .00008424  00000-0  73480-2 0  9995
2 45296  82.6429 230.8110 0202008 323.6155  35.1407 13.76873084276520
Epoch: 2025-09-16T04:01Z
TLE epoch observation values (Epoch: 2025-09-16T04:01:59.018Z)
Latitude
0.00001°
Longitude
174.95287°
Altitude
857.425 km
Speed
7.484 km/s
True Right ascension
15h 23m 14s
True Declination
0° 00' 00"
Sunlit
Object was in daylight at epoch
Visualization orbit readout
Latitude
Unknown
Longitude
Unknown
Altitude
Unknown
Speed
Unknown
Apparent Right ascension
Unknown
Apparent Declination
Unknown
Sunlit
N/A
Visualization observer readout
Local Sidereal Time
10:15:33
Azimuth
Unknown
Elevation
Unknown
Doppler factor
Unknown
Orbital elements
Apogee altitude
1,120.636 km
Perigee altitude
823.673 km
Semi-major axis
7,350.292 km
Eccentricity
0.0202
Inclination
82.6429°
RAAN
230.811°
Arg. of periapsis
323.6155°
True anomaly
36.50103°
Mean anomaly
35.1407°
Eccentric anomaly
35.81804°
Mean motion
3.44418 °/min
Orbital period
104.52 mins
BSTAR
0.007348
Loading maneuver chart data...
Computing Atmospheric mass density...
Loading historical data...
Loading historical data...
Loading historical data...
Loading historical data...
Loading historical data...
Loading historical data...
Loading historical data...

Documentation

Showing up to 5 results
|